QPF
0.00 0.01 0.02 0.03 0.01 0.00 0.00 0.00 0.00 0.00 0.00 0.00 0.00 0.00 0.01 0.00 0.01 0.01 0.02 0.03 0.02 0.03 0.04 0.05 0.05 0.04 0.03 0.02 0.02 0.04 0.05 0.06 0.09 0.05 0.03 0.03 0.03 0.03 0.03 0.05 0.07 0.07 0.05 0.04 0.04 0.03 0.02 0.02 0.03
0.00 0.02 0.03 0.01 0.00 0.00 0.00 0.00 0.00 0.00 0.00 0.00 0.00 0.00 0.00 0.00 0.00 0.01 0.02 0.04 0.03 0.03 0.04 0.03 0.04 0.04 0.04 0.05 0.04 0.03 0.03 0.04 0.07 0.07 0.06 0.04 0.03 0.03 0.04 0.06 0.06 0.05 0.05 0.06 0.04 0.03 0.01 0.02 0.04
0.01 0.02 0.01 0.00 0.00 0.00 0.00 0.01 0.01 0.00 0.00 0.00 0.00 0.00 0.00 0.00 0.01 0.01 0.02 0.05 0.03 0.03 0.03 0.02 0.03 0.04 0.04 0.03 0.03 0.02 0.02 0.03 0.03 0.04 0.05 0.05 0.04 0.03 0.04 0.05 0.05 0.04 0.03 0.02 0.02 0.03 0.03 0.04 0.05
0.01 0.01 0.00 0.00 0.00 0.00 0.00 0.01 0.02 0.01 0.00 0.00 0.00 0.00 0.00 0.01 0.01 0.02 0.03 0.04 0.04 0.02 0.02 0.02 0.03 0.04 0.04 0.02 0.02 0.02 0.02 0.03 0.03 0.03 0.05 0.06 0.07 0.05 0.03 0.03 0.03 0.03 0.02 0.02 0.03 0.04 0.04 0.05 0.06
0.01 0.00 0.00 0.00 0.00 0.00 0.01 0.01 0.01 0.00 0.00 0.00 0.00 0.00 0.00 0.00 0.01 0.02 0.03 0.02 0.02 0.02 0.02 0.02 0.03 0.04 0.05 0.03 0.02 0.02 0.03 0.02 0.02 0.03 0.04 0.04 0.05 0.05 0.03 0.03 0.03 0.03 0.02 0.03 0.03 0.05 0.04 0.05 0.06
0.00 0.00 0.00 0.00 0.00 0.00 0.01 0.01 0.01 0.00 0.00 0.00 0.00 0.00 0.00 0.01 0.01 0.01 0.01 0.01 0.01 0.01 0.01 0.02 0.05 0.06 0.06 0.04 0.03 0.02 0.02 0.02 0.02 0.03 0.03 0.03 0.04 0.03 0.04 0.05 0.05 0.03 0.03 0.03 0.03 0.06 0.05 0.05 0.05
0.00 0.00 0.00 0.00 0.00 0.00 0.00 0.00 0.01 0.01 0.00 0.00 0.00 0.00 0.00 0.01 0.02 0.01 0.01 0.01 0.01 0.01 0.01 0.02 0.04 0.06 0.06 0.06 0.05 0.03 0.04 0.03 0.03 0.03 0.04 0.04 0.04 0.03 0.05 0.07 0.07 0.05 0.03 0.03 0.05 0.06 0.05 0.05 0.04
0.00 0.00 0.00 0.00 0.00 0.00 0.01 0.01 0.01 0.01 0.00 0.00 0.00 0.00 0.00 0.00 0.01 0.02 0.01 0.00 0.01 0.01 0.01 0.01 0.02 0.04 0.05 0.05 0.05 0.05 0.05 0.04 0.04 0.05 0.05 0.05 0.04 0.04 0.05 0.06 0.07 0.08 0.06 0.06 0.06 0.05 0.06 0.05 0.04
0.00 0.00 0.00 0.01 0.00 0.00 0.00 0.00 0.00 0.00 0.00 0.00 0.00 0.00 0.00 0.00 0.00 0.01 0.01 0.00 0.01 0.01 0.01 0.01 0.01 0.03 0.04 0.03 0.03 0.04 0.05 0.04 0.04 0.04 0.04 0.03 0.02 0.02 0.02 0.04 0.06 0.07 0.08 0.08 0.07 0.06 0.05 0.05 0.05
0.00 0.00 0.00 0.00 0.00 0.00 0.00 0.00 0.00 0.01 0.01 0.00 0.00 0.00 0.00 0.00 0.01 0.01 0.01 0.00 0.01 0.01 0.01 0.02 0.02 0.02 0.05 0.05 0.03 0.02 0.02 0.02 0.02 0.02 0.02 0.02 0.01 0.01 0.02 0.03 0.05 0.08 0.08 0.06 0.06 0.04 0.03 0.02 0.01
0.00 0.00 0.00 0.00 0.00 0.00 0.00 0.00 0.00 0.00 0.00 0.00 0.00 0.00 0.01 0.01 0.01 0.01 0.00 0.00 0.01 0.01 0.02 0.02 0.02 0.01 0.03 0.06 0.04 0.02 0.02 0.02 0.03 0.02 0.03 0.02 0.02 0.02 0.02 0.01 0.01 0.02 0.03 0.02 0.02 0.01 0.00 0.00 0.00
0.00 0.00 0.00 0.00 0.00 0.00 0.00 0.00 0.00 0.00 0.00 0.00 0.00 0.00 0.01 0.01 0.01 0.01 0.01 0.01 0.01 0.02 0.03 0.04 0.03 0.01 0.02 0.04 0.05 0.03 0.02 0.02 0.03 0.03 0.02 0.02 0.01 0.01 0.01 0.01 0.01 0.02 0.01 0.01 0.01 0.01 0.01 0.01 0.01
0.00 0.00 0.00 0.00 0.00 0.00 0.00 0.00 0.00 0.00 0.00 0.00 0.00 0.00 0.00 0.00 0.00 0.01 0.01 0.02 0.02 0.03 0.03 0.03 0.03 0.02 0.01 0.02 0.03 0.02 0.02 0.02 0.03 0.03 0.02 0.01 0.01 0.02 0.02 0.02 0.01 0.02 0.03 0.02 0.02 0.02 0.01 0.01 0.01
0.00 0.00 0.00 0.01 0.00 0.00 0.00 0.00 0.00 0.00 0.00 0.00 0.00 0.00 0.00 0.00 0.00 0.00 0.00 0.01 0.02 0.03 0.03 0.02 0.02 0.02 0.01 0.01 0.03 0.03 0.03 0.02 0.02 0.02 0.03 0.02 0.01 0.02 0.03 0.03 0.02 0.02 0.03 0.03 0.04 0.05 0.04 0.02 0.02
0.00 0.00 0.00 0.01 0.01 0.00 0.00 0.00 0.00 0.00 0.00 0.00 0.00 0.00 0.00 0.00 0.00 0.00 0.00 0.00 0.01 0.01 0.02 0.02 0.03 0.01 0.01 0.01 0.02 0.03 0.02 0.02 0.03 0.03 0.03 0.03 0.03 0.04 0.04 0.04 0.03 0.02 0.02 0.03 0.04 0.06 0.05 0.03 0.02
0.00 0.00 0.00 0.00 0.01 0.01 0.00 0.00 0.00 0.00 0.00 0.00 0.00 0.00 0.00 0.00 0.00 0.00 0.00 0.01 0.01 0.00 0.01 0.01 0.02 0.02 0.01 0.01 0.01 0.02 0.02 0.03 0.03 0.03 0.03 0.03 0.03 0.03 0.04 0.08 0.06 0.04 0.04 0.03 0.03 0.06 0.05 0.04 0.03
0.00 0.00 0.00 0.00 0.01 0.03 0.02 0.00 0.00 0.00 0.00 0.00 0.00 0.00 0.00 0.00 0.00 0.00 0.01 0.01 0.00 0.00 0.00 0.01 0.01 0.02 0.02 0.01 0.01 0.01 0.02 0.03 0.03 0.03 0.04 0.04 0.04 0.03 0.05 0.08 0.06 0.06 0.05 0.04 0.03 0.03 0.03 0.02 0.02
0.00 0.00 0.00 0.00 0.00 0.02 0.03 0.01 0.00 0.00 0.00 0.00 0.00 0.00 0.00 0.00 0.00 0.00 0.01 0.01 0.01 0.00 0.00 0.01 0.01 0.02 0.02 0.02 0.02 0.02 0.02 0.03 0.03 0.02 0.02 0.04 0.04 0.04 0.04 0.04 0.04 0.03 0.02 0.02 0.03 0.03 0.02 0.01 0.01
0.00 0.00 0.00 0.00 0.01 0.01 0.03 0.03 0.01 0.00 0.00 0.00 0.00 0.00 0.00 0.00 0.00 0.00 0.01 0.01 0.01 0.01 0.00 0.01 0.01 0.02 0.02 0.03 0.02 0.02 0.02 0.03 0.04 0.03 0.02 0.03 0.04 0.04 0.03 0.03 0.02 0.02 0.02 0.02 0.02 0.02 0.01 0.01 0.01
0.00 0.00 0.00 0.00 0.00 0.01 0.02 0.03 0.02 0.01 0.00 0.00 0.00 0.00 0.00 0.00 0.00 0.01 0.01 0.02 0.02 0.01 0.01 0.00 0.01 0.01 0.02 0.02 0.01 0.02 0.02 0.03 0.04 0.04 0.04 0.03 0.02 0.03 0.03 0.02 0.02 0.03 0.02 0.02 0.01 0.01 0.01 0.01 0.01
0.00 0.00 0.00 0.00 0.00 0.01 0.02 0.03 0.03 0.01 0.00 0.00 0.00 0.00 0.00 0.00 0.00 0.00 0.01 0.02 0.01 0.01 0.01 0.01 0.01 0.01 0.01 0.02 0.01 0.02 0.03 0.05 0.04 0.04 0.04 0.03 0.03 0.03 0.03 0.03 0.02 0.02 0.02 0.02 0.02 0.01 0.01 0.01 0.01
0.00 0.00 0.00 0.00 0.00 0.00 0.01 0.02 0.04 0.02 0.00 0.00 0.00 0.00 0.00 0.00 0.00 0.01 0.01 0.01 0.01 0.01 0.02 0.02 0.02 0.01 0.01 0.01 0.00 0.01 0.02 0.04 0.03 0.03 0.03 0.04 0.04 0.03 0.04 0.04 0.03 0.02 0.01 0.02 0.03 0.03 0.02 0.02 0.01
0.00 0.00 0.00 0.00 0.00 0.00 0.00 0.01 0.04 0.04 0.01 0.00 0.00 0.00 0.00 0.00 0.00 0.00 0.01 0.01 0.01 0.01 0.01 0.02 0.02 0.02 0.02 0.01 0.01 0.00 0.01 0.01 0.02 0.02 0.03 0.04 0.04 0.03 0.03 0.03 0.03 0.02 0.02 0.02 0.02 0.02 0.03 0.03 0.02
0.00 0.00 0.01 0.01 0.01 0.01 0.00 0.01 0.03 0.04 0.01 0.00 0.00 0.00 0.00 0.00 0.00 0.00 0.01 0.01 0.01 0.00 0.01 0.01 0.02 0.02 0.02 0.02 0.02 0.01 0.01 0.01 0.01 0.02 0.03 0.03 0.03 0.03 0.03 0.04 0.04 0.04 0.03 0.02 0.02 0.03 0.03 0.04 0.02
0.01 0.01 0.01 0.01 0.01 0.01 0.01 0.01 0.01 0.03 0.02 0.00 0.00 0.00 0.00 0.00 0.00 0.00 0.00 0.01 0.00 0.00 0.00 0.01 0.01 0.02 0.01 0.02 0.02 0.02 0.02 0.02 0.01 0.02 0.03 0.03 0.03 0.04 0.04 0.04 0.05 0.04 0.04 0.04 0.03 0.03 0.03 0.04 0.02
0.01 0.01 0.01 0.01 0.01 0.00 0.01 0.01 0.01 0.02 0.01 0.01 0.00 0.00 0.00 0.01 0.01 0.00 0.00 0.01 0.00 0.00 0.00 0.01 0.01 0.01 0.01 0.01 0.01 0.02 0.03 0.02 0.02 0.02 0.02 0.03 0.04 0.04 0.03 0.04 0.05 0.04 0.04 0.04 0.04 0.03 0.02 0.03 0.02
0.00 0.00 0.01 0.01 0.01 0.01 0.01 0.01 0.00 0.02 0.02 0.01 0.01 0.00 0.01 0.01 0.01 0.01 0.01 0.00 0.00 0.00 0.01 0.02 0.02 0.02 0.01 0.01 0.01 0.02 0.03 0.02 0.03 0.03 0.03 0.04 0.04 0.03 0.02 0.03 0.04 0.04 0.04 0.04 0.04 0.04 0.03 0.02 0.02
0.01 0.00 0.01 0.02 0.02 0.01 0.01 0.01 0.00 0.01 0.02 0.01 0.01 0.01 0.01 0.01 0.01 0.00 0.00 0.01 0.00 0.00 0.01 0.01 0.01 0.01 0.01 0.01 0.01 0.02 0.02 0.02 0.03 0.03 0.04 0.04 0.03 0.03 0.03 0.03 0.04 0.04 0.04 0.04 0.05 0.04 0.03 0.02 0.02
0.01 0.01 0.01 0.01 0.02 0.02 0.01 0.01 0.00 0.01 0.01 0.01 0.01 0.01 0.01 0.00 0.01 0.01 0.01 0.01 0.01 0.02 0.02 0.02 0.02 0.01 0.01 0.01 0.01 0.02 0.02 0.02 0.02 0.03 0.04 0.04 0.04 0.04 0.03 0.03 0.04 0.04 0.04 0.04 0.04 0.04 0.04 0.03 0.02
0.01 0.01 0.01 0.01 0.01 0.01 0.01 0.00 0.00 0.01 0.01 0.00 0.00 0.00 0.00 0.01 0.01 0.01 0.01 0.01 0.01 0.02 0.02 0.02 0.02 0.02 0.02 0.01 0.01 0.02 0.02 0.02 0.02 0.03 0.03 0.03 0.05 0.05 0.04 0.03 0.03 0.03 0.03 0.04 0.03 0.04 0.04 0.04 0.03
MSLP
1008.60 1009.75 1011.12 1012.57 1013.95 1015.13 1016.02 1016.58 1016.83 1016.83 1016.67 1016.44 1016.20 1015.99 1015.80 1015.60 1015.34 1015.00 1014.57 1014.07 1013.55 1013.07 1012.67 1012.40 1012.25 1012.22 1012.23 1012.25 1012.21 1012.09 1011.89 1011.63 1011.34 1011.08 1010.88 1010.76 1010.72 1010.72 1010.76 1010.78 1010.76 1010.70 1010.61 1010.52 1010.45 1010.44 1010.49 1010.62 1010.81
1009.18 1010.49 1011.96 1013.42 1014.72 1015.75 1016.42 1016.72 1016.72 1016.48 1016.13 1015.76 1015.43 1015.17 1014.96 1014.78 1014.56 1014.27 1013.91 1013.50 1013.08 1012.70 1012.41 1012.24 1012.20 1012.23 1012.30 1012.35 1012.33 1012.23 1012.03 1011.77 1011.49 1011.24 1011.05 1010.93 1010.87 1010.85 1010.83 1010.80 1010.72 1010.60 1010.46 1010.33 1010.25 1010.23 1010.30 1010.45 1010.67
1009.89 1011.32 1012.81 1014.20 1015.36 1016.18 1016.60 1016.66 1016.42 1015.99 1015.49 1015.02 1014.64 1014.36 1014.16 1013.99 1013.81 1013.57 1013.28 1012.94 1012.60 1012.32 1012.13 1012.07 1012.11 1012.23 1012.36 1012.45 1012.46 1012.36 1012.18 1011.93 1011.67 1011.42 1011.23 1011.09 1011.00 1010.93 1010.86 1010.75 1010.61 1010.44 1010.26 1010.11 1010.03 1010.03 1010.13 1010.32 1010.59
1010.70 1012.16 1013.61 1014.89 1015.86 1016.45 1016.64 1016.47 1016.04 1015.47 1014.87 1014.35 1013.95 1013.67 1013.49 1013.35 1013.19 1012.98 1012.72 1012.44 1012.17 1011.97 1011.87 1011.89 1012.02 1012.20 1012.38 1012.51 1012.55 1012.48 1012.32 1012.08 1011.83 1011.59 1011.39 1011.24 1011.11 1011.00 1010.86 1010.69 1010.49 1010.28 1010.08 1009.93 1009.87 1009.90 1010.05 1010.29 1010.61
1011.51 1012.96 1014.31 1015.43 1016.20 1016.57 1016.55 1016.21 1015.66 1015.01 1014.39 1013.86 1013.47 1013.21 1013.04 1012.91 1012.75 1012.55 1012.30 1012.05 1011.82 1011.68 1011.65 1011.74 1011.92 1012.16 1012.38 1012.54 1012.60 1012.55 1012.40 1012.19 1011.95 1011.72 1011.53 1011.36 1011.21 1011.06 1010.88 1010.66 1010.42 1010.18 1009.98 1009.85 1009.82 1009.90 1010.10 1010.40 1010.75
1012.24 1013.62 1014.83 1015.77 1016.34 1016.53 1016.36 1015.92 1015.32 1014.66 1014.06 1013.58 1013.23 1013.00 1012.84 1012.69 1012.52 1012.29 1012.04 1011.79 1011.58 1011.48 1011.49 1011.62 1011.85 1012.11 1012.35 1012.52 1012.59 1012.55 1012.41 1012.22 1012.01 1011.81 1011.63 1011.47 1011.32 1011.15 1010.94 1010.70 1010.45 1010.20 1010.01 1009.91 1009.92 1010.05 1010.29 1010.62 1011.01
1012.81 1014.06 1015.11 1015.86 1016.26 1016.31 1016.05 1015.58 1014.99 1014.40 1013.88 1013.47 1013.18 1012.98 1012.82 1012.65 1012.44 1012.19 1011.91 1011.64 1011.44 1011.36 1011.40 1011.55 1011.79 1012.06 1012.30 1012.46 1012.52 1012.48 1012.36 1012.19 1012.02 1011.85 1011.71 1011.58 1011.45 1011.29 1011.09 1010.85 1010.60 1010.37 1010.20 1010.13 1010.17 1010.34 1010.61 1010.96 1011.34
1013.15 1014.24 1015.10 1015.67 1015.93 1015.88 1015.59 1015.15 1014.64 1014.15 1013.74 1013.44 1013.22 1013.05 1012.89 1012.70 1012.45 1012.16 1011.85 1011.58 1011.38 1011.31 1011.36 1011.53 1011.77 1012.03 1012.25 1012.39 1012.43 1012.39 1012.27 1012.13 1011.99 1011.87 1011.78 1011.70 1011.61 1011.48 1011.31 1011.10 1010.87 1010.66 1010.52 1010.47 1010.54 1010.72 1011.00 1011.35 1011.71
1013.24 1014.15 1014.82 1015.22 1015.36 1015.26 1014.98 1014.61 1014.21 1013.86 1013.57 1013.37 1013.23 1013.09 1012.94 1012.73 1012.45 1012.14 1011.81 1011.54 1011.36 1011.30 1011.37 1011.55 1011.78 1012.02 1012.22 1012.33 1012.35 1012.29 1012.18 1012.06 1011.96 1011.89 1011.86 1011.84 1011.80 1011.73 1011.60 1011.42 1011.23 1011.05 1010.93 1010.90 1010.99 1011.17 1011.45 1011.77 1012.09
1013.13 1013.84 1014.33 1014.58 1014.62 1014.49 1014.25 1013.96 1013.68 1013.46 1013.31 1013.21 1013.13 1013.03 1012.89 1012.67 1012.39 1012.07 1011.75 1011.50 1011.34 1011.31 1011.41 1011.59 1011.83 1012.05 1012.22 1012.31 1012.31 1012.24 1012.13 1012.03 1011.96 1011.94 1011.96 1012.00 1012.02 1012.00 1011.92 1011.79 1011.63 1011.48 1011.39 1011.38 1011.47 1011.65 1011.91 1012.20 1012.49
1012.91 1013.42 1013.73 1013.86 1013.82 1013.67 1013.46 1013.26 1013.09 1012.98 1012.93 1012.92 1012.90 1012.84 1012.71 1012.50 1012.23 1011.93 1011.65 1011.43 1011.32 1011.33 1011.46 1011.66 1011.90 1012.12 1012.27 1012.34 1012.32 1012.24 1012.14 1012.05 1012.01 1012.02 1012.08 1012.17 1012.24 1012.27 1012.24 1012.15 1012.03 1011.92 1011.86 1011.87 1011.97 1012.15 1012.40 1012.67 1012.92
1012.67 1013.02 1013.18 1013.18 1013.07 1012.91 1012.73 1012.59 1012.51 1012.48 1012.51 1012.55 1012.57 1012.54 1012.44 1012.26 1012.02 1011.76 1011.52 1011.36 1011.30 1011.35 1011.51 1011.74 1011.99 1012.21 1012.36 1012.41 1012.39 1012.31 1012.21 1012.13 1012.10 1012.14 1012.22 1012.33 1012.44 1012.51 1012.52 1012.49 1012.42 1012.35 1012.32 1012.36 1012.48 1012.67 1012.92 1013.18 1013.41
1012.55 1012.75 1012.78 1012.69 1012.53 1012.34 1012.18 1012.07 1012.03 1012.05 1012.12 1012.19 1012.23 1012.23 1012.15 1012.00 1011.81 1011.60 1011.42 1011.31 1011.29 1011.39 1011.57 1011.82 1012.08 1012.30 1012.46 1012.53 1012.52 1012.44 1012.35 1012.27 1012.24 1012.28 1012.36 1012.48 1012.61 1012.71 1012.77 1012.78 1012.76 1012.75 1012.77 1012.85 1013.01 1013.23 1013.49 1013.76 1013.99
1012.62 1012.71 1012.64 1012.48 1012.28 1012.07 1011.91 1011.80 1011.77 1011.79 1011.86 1011.93 1011.98 1011.99 1011.94 1011.83 1011.69 1011.53 1011.40 1011.32 1011.34 1011.45 1011.64 1011.89 1012.16 1012.39 1012.56 1012.66 1012.66 1012.61 1012.53 1012.45 1012.41 1012.43 1012.50 1012.61 1012.74 1012.86 1012.96 1013.03 1013.08 1013.13 1013.22 1013.36 1013.57 1013.83 1014.12 1014.41 1014.66
1012.90 1012.91 1012.78 1012.58 1012.34 1012.12 1011.94 1011.82 1011.76 1011.75 1011.79 1011.84 1011.88 1011.90 1011.88 1011.81 1011.71 1011.59 1011.49 1011.44 1011.46 1011.56 1011.73 1011.97 1012.23 1012.47 1012.66 1012.78 1012.83 1012.80 1012.73 1012.65 1012.60 1012.59 1012.63 1012.72 1012.85 1012.99 1013.12 1013.25 1013.38 1013.51 1013.68 1013.89 1014.15 1014.45 1014.79 1015.11 1015.39
1013.33 1013.29 1013.14 1012.92 1012.68 1012.44 1012.24 1012.09 1011.99 1011.93 1011.92 1011.93 1011.96 1011.98 1011.98 1011.95 1011.89 1011.81 1011.72 1011.67 1011.66 1011.72 1011.85 1012.05 1012.29 1012.54 1012.75 1012.91 1012.99 1013.00 1012.96 1012.88 1012.80 1012.76 1012.77 1012.83 1012.95 1013.10 1013.28 1013.47 1013.67 1013.89 1014.14 1014.42 1014.74 1015.09 1015.46 1015.81 1016.13
1013.81 1013.76 1013.60 1013.40 1013.17 1012.95 1012.73 1012.54 1012.38 1012.26 1012.19 1012.15 1012.16 1012.18 1012.21 1012.22 1012.20 1012.14 1012.07 1011.99 1011.94 1011.94 1012.01 1012.16 1012.37 1012.61 1012.84 1013.04 1013.17 1013.22 1013.20 1013.13 1013.04 1012.97 1012.94 1012.97 1013.07 1013.23 1013.45 1013.70 1013.98 1014.28 1014.60 1014.94 1015.31 1015.69 1016.08 1016.46 1016.80
1014.22 1014.17 1014.05 1013.90 1013.71 1013.51 1013.29 1013.06 1012.84 1012.65 1012.50 1012.41 1012.39 1012.42 1012.47 1012.53 1012.55 1012.53 1012.47 1012.37 1012.27 1012.21 1012.22 1012.30 1012.47 1012.70 1012.96 1013.19 1013.37 1013.47 1013.48 1013.42 1013.32 1013.22 1013.15 1013.15 1013.24 1013.41 1013.65 1013.96 1014.30 1014.67 1015.05 1015.43 1015.82 1016.22 1016.61 1016.99 1017.34
1014.43 1014.42 1014.38 1014.30 1014.18 1014.02 1013.80 1013.54 1013.26 1012.98 1012.76 1012.62 1012.56 1012.60 1012.69 1012.80 1012.88 1012.91 1012.86 1012.76 1012.63 1012.51 1012.45 1012.48 1012.61 1012.83 1013.10 1013.37 1013.60 1013.75 1013.80 1013.75 1013.65 1013.52 1013.43 1013.40 1013.47 1013.64 1013.91 1014.26 1014.65 1015.06 1015.47 1015.87 1016.26 1016.64 1017.01 1017.38 1017.72
1014.41 1014.47 1014.52 1014.55 1014.52 1014.42 1014.21 1013.92 1013.56 1013.20 1012.89 1012.68 1012.60 1012.63 1012.76 1012.94 1013.10 1013.19 1013.20 1013.11 1012.97 1012.82 1012.72 1012.70 1012.80 1013.00 1013.28 1013.58 1013.86 1014.05 1014.14 1014.12 1014.02 1013.88 1013.77 1013.72 1013.78 1013.95 1014.23 1014.59 1015.01 1015.44 1015.86 1016.25 1016.62 1016.96 1017.29 1017.61 1017.93
1014.16 1014.32 1014.50 1014.66 1014.74 1014.70 1014.51 1014.17 1013.74 1013.28 1012.88 1012.59 1012.46 1012.50 1012.67 1012.92 1013.16 1013.35 1013.43 1013.39 1013.27 1013.12 1012.98 1012.93 1013.00 1013.20 1013.48 1013.81 1014.12 1014.36 1014.49 1014.50 1014.41 1014.28 1014.16 1014.10 1014.14 1014.30 1014.58 1014.95 1015.37 1015.80 1016.20 1016.57 1016.89 1017.17 1017.44 1017.71 1018.00
1013.80 1014.08 1014.40 1014.70 1014.89 1014.91 1014.73 1014.35 1013.83 1013.25 1012.73 1012.36 1012.17 1012.20 1012.41 1012.74 1013.08 1013.37 1013.55 1013.59 1013.52 1013.38 1013.24 1013.17 1013.22 1013.40 1013.68 1014.02 1014.36 1014.64 1014.81 1014.85 1014.80 1014.68 1014.57 1014.51 1014.54 1014.70 1014.96 1015.32 1015.73 1016.13 1016.51 1016.82 1017.09 1017.31 1017.51 1017.73 1017.98
1013.46 1013.87 1014.33 1014.77 1015.06 1015.13 1014.93 1014.49 1013.87 1013.17 1012.53 1012.05 1011.81 1011.82 1012.06 1012.45 1012.90 1013.30 1013.58 1013.71 1013.70 1013.60 1013.47 1013.39 1013.42 1013.57 1013.84 1014.19 1014.55 1014.85 1015.06 1015.15 1015.13 1015.05 1014.96 1014.90 1014.94 1015.09 1015.34 1015.68 1016.06 1016.44 1016.77 1017.04 1017.24 1017.40 1017.54 1017.70 1017.91
1013.27 1013.80 1014.40 1014.94 1015.30 1015.39 1015.17 1014.65 1013.92 1013.10 1012.33 1011.75 1011.44 1011.43 1011.69 1012.14 1012.68 1013.18 1013.56 1013.78 1013.84 1013.77 1013.66 1013.57 1013.57 1013.70 1013.95 1014.28 1014.65 1014.98 1015.22 1015.36 1015.39 1015.35 1015.29 1015.26 1015.31 1015.45 1015.69 1016.01 1016.36 1016.70 1016.99 1017.22 1017.37 1017.48 1017.56 1017.68 1017.84
1013.31 1013.94 1014.63 1015.24 1015.63 1015.71 1015.44 1014.83 1013.99 1013.05 1012.17 1011.49 1011.12 1011.09 1011.36 1011.86 1012.47 1013.06 1013.53 1013.83 1013.94 1013.91 1013.80 1013.70 1013.68 1013.77 1013.99 1014.30 1014.66 1015.00 1015.28 1015.47 1015.55 1015.56 1015.55 1015.55 1015.61 1015.76 1015.99 1016.29 1016.61 1016.92 1017.18 1017.37 1017.49 1017.56 1017.61 1017.68 1017.81
1013.60 1014.28 1015.00 1015.62 1015.99 1016.02 1015.67 1014.97 1014.03 1012.99 1012.03 1011.29 1010.87 1010.82 1011.11 1011.64 1012.31 1012.96 1013.50 1013.86 1014.02 1014.02 1013.91 1013.79 1013.73 1013.79 1013.96 1014.25 1014.60 1014.95 1015.26 1015.48 1015.62 1015.69 1015.72 1015.76 1015.84 1016.00 1016.22 1016.50 1016.80 1017.09 1017.33 1017.50 1017.60 1017.65 1017.69 1017.74 1017.84
1014.07 1014.73 1015.41 1015.97 1016.26 1016.20 1015.76 1014.98 1013.96 1012.86 1011.86 1011.09 1010.67 1010.63 1010.93 1011.50 1012.20 1012.90 1013.49 1013.89 1014.08 1014.09 1013.99 1013.85 1013.76 1013.78 1013.92 1014.17 1014.50 1014.86 1015.18 1015.45 1015.63 1015.75 1015.83 1015.90 1016.01 1016.17 1016.39 1016.66 1016.94 1017.22 1017.45 1017.62 1017.72 1017.78 1017.81 1017.85 1017.94
1014.59 1015.16 1015.73 1016.15 1016.32 1016.13 1015.59 1014.74 1013.68 1012.58 1011.59 1010.85 1010.46 1010.46 1010.80 1011.40 1012.13 1012.86 1013.47 1013.89 1014.11 1014.13 1014.03 1013.89 1013.78 1013.77 1013.88 1014.11 1014.42 1014.77 1015.11 1015.40 1015.63 1015.79 1015.90 1016.01 1016.13 1016.30 1016.51 1016.77 1017.05 1017.32 1017.55 1017.74 1017.86 1017.93 1017.98 1018.03 1018.11
1015.02 1015.43 1015.80 1016.04 1016.02 1015.70 1015.07 1014.18 1013.13 1012.07 1011.15 1010.50 1010.19 1010.25 1010.64 1011.28 1012.03 1012.78 1013.40 1013.84 1014.08 1014.12 1014.04 1013.91 1013.80 1013.78 1013.88 1014.09 1014.40 1014.74 1015.09 1015.40 1015.65 1015.84 1015.98 1016.10 1016.24 1016.41 1016.62 1016.87 1017.14 1017.42 1017.66 1017.87 1018.03 1018.14 1018.21 1018.28 1018.37
1015.24 1015.42 1015.56 1015.56 1015.36 1014.89 1014.18 1013.28 1012.29 1011.33 1010.53 1010.01 1009.82 1009.97 1010.42 1011.09 1011.86 1012.62 1013.25 1013.71 1013.96 1014.04 1014.00 1013.90 1013.82 1013.83 1013.94 1014.15 1014.46 1014.80 1015.16 1015.48 1015.74 1015.94 1016.10 1016.24 1016.37 1016.54 1016.75 1016.99 1017.27 1017.54 1017.81 1018.05 1018.24 1018.39 1018.51 1018.61 1018.72
Thickness
5797 5796 5793 5780 5755 5730 5725 5735 5742 5743 5746 5751 5754 5749 5742 5736 5732 5729 5750 5758 5759 5758 5757 5757 5757 5756 5756 5755 5755 5755 5754 5754 5754 5754 5754 5753 5753 5753 5753 5753 5753 5753 5753 5753 5754 5754 5754 5754 5754
5797 5795 5784 5764 5735 5714 5722 5736 5739 5745 5751 5754 5753 5749 5742 5740 5746 5747 5752 5757 5757 5756 5755 5754 5754 5753 5753 5752 5752 5751 5751 5751 5750 5750 5750 5750 5750 5750 5750 5750 5750 5750 5750 5750 5750 5750 5750 5750 5751
5797 5792 5769 5747 5728 5718 5727 5739 5742 5749 5755 5753 5747 5747 5743 5740 5747 5749 5754 5757 5756 5754 5753 5752 5751 5750 5750 5749 5748 5748 5747 5747 5747 5747 5747 5747 5746 5746 5746 5746 5746 5746 5746 5746 5746 5746 5747 5747 5747
5791 5777 5760 5738 5728 5733 5738 5744 5747 5747 5751 5751 5746 5740 5743 5749 5750 5753 5756 5755 5753 5751 5750 5749 5748 5747 5746 5746 5745 5744 5744 5743 5743 5743 5743 5743 5743 5742 5742 5742 5742 5743 5743 5743 5743 5743 5743 5743 5744
5784 5763 5740 5726 5730 5739 5745 5749 5750 5745 5744 5746 5744 5736 5737 5748 5754 5754 5753 5752 5750 5748 5747 5746 5745 5744 5743 5742 5742 5741 5741 5740 5740 5740 5740 5739 5739 5739 5739 5739 5739 5739 5739 5739 5739 5739 5739 5739 5740
5766 5752 5726 5719 5729 5739 5746 5750 5749 5744 5743 5744 5741 5735 5736 5748 5750 5750 5750 5749 5747 5746 5744 5743 5742 5742 5741 5740 5739 5738 5737 5737 5737 5736 5736 5736 5736 5736 5736 5735 5735 5735 5735 5735 5735 5736 5736 5735 5735
5758 5742 5727 5726 5726 5734 5745 5751 5746 5742 5740 5742 5743 5733 5735 5744 5748 5748 5747 5746 5744 5743 5741 5740 5739 5739 5738 5737 5736 5735 5734 5734 5734 5734 5733 5733 5733 5732 5732 5732 5731 5731 5731 5731 5732 5731 5731 5731 5731
5765 5744 5730 5726 5727 5732 5747 5750 5750 5746 5742 5750 5747 5733 5732 5742 5747 5746 5744 5742 5741 5739 5738 5737 5737 5736 5735 5734 5733 5733 5732 5731 5731 5730 5730 5730 5729 5729 5728 5728 5728 5727 5727 5727 5727 5727 5727 5726 5726
5768 5737 5724 5729 5730 5736 5747 5746 5749 5753 5747 5746 5746 5743 5744 5746 5744 5740 5737 5736 5735 5735 5734 5734 5734 5733 5732 5731 5730 5729 5729 5728 5727 5727 5726 5726 5725 5725 5724 5724 5724 5724 5723 5723 5723 5722 5722 5722 5721
5755 5731 5735 5744 5744 5743 5746 5745 5746 5744 5738 5738 5740 5742 5745 5742 5739 5735 5731 5729 5729 5730 5730 5731 5730 5729 5729 5728 5727 5726 5726 5725 5724 5723 5723 5722 5722 5721 5721 5720 5720 5720 5719 5718 5718 5717 5717 5716 5716
5754 5741 5747 5751 5752 5750 5745 5744 5746 5738 5731 5735 5736 5737 5738 5737 5734 5731 5729 5728 5728 5728 5728 5728 5727 5727 5726 5725 5724 5723 5722 5722 5721 5720 5719 5718 5718 5717 5716 5716 5715 5715 5714 5713 5713 5712 5711 5711 5710
5751 5750 5753 5752 5755 5750 5746 5744 5739 5738 5738 5745 5744 5741 5737 5733 5730 5729 5727 5726 5726 5725 5725 5725 5725 5724 5723 5722 5721 5720 5719 5719 5718 5717 5716 5715 5714 5713 5712 5711 5711 5710 5709 5708 5708 5707 5706 5706 5705
5748 5748 5753 5754 5752 5749 5746 5741 5738 5737 5744 5745 5742 5738 5734 5731 5729 5729 5728 5726 5724 5723 5723 5723 5722 5721 5720 5719 5718 5717 5717 5716 5715 5714 5713 5712 5711 5710 5709 5708 5706 5706 5705 5704 5703 5702 5701 5701 5700
5747 5747 5747 5748 5747 5746 5740 5737 5736 5736 5741 5739 5736 5732 5731 5729 5728 5726 5725 5723 5722 5721 5720 5720 5720 5719 5718 5717 5716 5715 5714 5713 5712 5712 5711 5710 5709 5707 5706 5705 5703 5702 5701 5700 5699 5698 5697 5696 5695
5748 5739 5737 5740 5741 5741 5737 5725 5729 5736 5737 5732 5730 5729 5728 5727 5726 5725 5724 5722 5721 5720 5719 5718 5718 5717 5716 5715 5714 5713 5712 5711 5710 5709 5708 5708 5706 5705 5703 5701 5700 5699 5697 5696 5695 5694 5693 5692 5690
5737 5725 5717 5729 5735 5736 5727 5710 5728 5734 5731 5726 5724 5724 5723 5724 5724 5724 5723 5722 5721 5719 5718 5717 5717 5715 5713 5712 5712 5711 5710 5709 5708 5707 5706 5705 5704 5703 5701 5699 5697 5696 5694 5693 5692 5690 5688 5686 5685
5716 5706 5709 5719 5730 5729 5721 5712 5725 5730 5727 5722 5720 5720 5719 5719 5721 5721 5721 5721 5719 5718 5716 5715 5714 5712 5711 5710 5709 5708 5707 5706 5705 5705 5704 5703 5702 5700 5699 5696 5694 5693 5691 5690 5689 5686 5684 5681 5680
5703 5704 5706 5709 5721 5721 5713 5711 5720 5724 5723 5719 5717 5716 5715 5716 5718 5719 5719 5719 5718 5716 5714 5712 5711 5710 5708 5707 5706 5704 5703 5703 5703 5702 5701 5701 5699 5698 5696 5694 5692 5691 5689 5687 5685 5682 5681 5678 5677
5713 5706 5702 5709 5721 5714 5708 5707 5714 5718 5716 5714 5712 5712 5712 5714 5717 5717 5717 5716 5714 5712 5711 5709 5708 5706 5705 5703 5701 5699 5698 5699 5699 5699 5698 5697 5697 5695 5694 5692 5690 5688 5686 5684 5683 5680 5677 5674 5674
5709 5701 5700 5708 5717 5710 5702 5703 5711 5713 5713 5713 5711 5710 5710 5711 5711 5712 5712 5711 5710 5709 5707 5706 5705 5704 5703 5702 5700 5698 5696 5695 5695 5695 5695 5694 5693 5692 5692 5690 5688 5686 5683 5681 5680 5678 5675 5673 5672
5703 5699 5699 5701 5706 5705 5700 5694 5701 5708 5710 5711 5710 5709 5709 5709 5707 5707 5707 5707 5706 5705 5704 5704 5703 5701 5700 5699 5697 5695 5693 5692 5691 5691 5690 5691 5690 5690 5689 5688 5686 5684 5682 5679 5678 5677 5675 5671 5669
5695 5708 5705 5701 5690 5681 5690 5672 5690 5697 5700 5703 5704 5704 5705 5706 5706 5704 5704 5703 5703 5703 5702 5701 5700 5698 5697 5696 5693 5691 5688 5685 5686 5687 5687 5687 5688 5687 5686 5685 5684 5682 5681 5678 5677 5675 5674 5671 5667
5702 5709 5702 5696 5687 5677 5680 5671 5678 5690 5691 5697 5701 5702 5703 5703 5703 5702 5702 5701 5701 5700 5699 5698 5697 5695 5694 5692 5690 5687 5685 5684 5683 5683 5683 5684 5684 5684 5683 5683 5681 5680 5679 5677 5676 5674 5672 5671 5668
5707 5697 5689 5679 5672 5662 5673 5667 5670 5680 5690 5696 5700 5700 5700 5700 5700 5700 5699 5698 5697 5696 5696 5695 5692 5690 5689 5688 5686 5684 5682 5680 5679 5679 5678 5679 5679 5680 5680 5679 5678 5677 5677 5676 5674 5673 5671 5669 5668
5695 5676 5658 5656 5650 5654 5671 5666 5670 5689 5696 5697 5698 5698 5698 5698 5696 5694 5694 5693 5692 5692 5691 5690 5688 5686 5685 5683 5682 5681 5680 5678 5677 5676 5675 5675 5675 5675 5676 5677 5676 5675 5675 5674 5673 5671 5670 5668 5667
5685 5676 5655 5647 5644 5651 5664 5660 5675 5692 5697 5698 5699 5697 5695 5693 5692 5691 5691 5690 5689 5688 5687 5685 5684 5682 5681 5680 5678 5677 5676 5675 5675 5674 5673 5672 5672 5673 5674 5674 5674 5673 5673 5672 5671 5670 5669 5667 5666
5679 5670 5671 5654 5651 5646 5651 5662 5677 5690 5690 5692 5692 5691 5690 5689 5689 5688 5687 5686 5685 5684 5683 5682 5680 5678 5678 5676 5675 5673 5672 5672 5671 5671 5671 5670 5670 5671 5671 5671 5671 5671 5670 5670 5669 5668 5667 5666 5665
5682 5670 5656 5649 5641 5638 5648 5653 5660 5675 5679 5683 5684 5684 5685 5686 5685 5684 5683 5682 5681 5681 5680 5678 5676 5675 5674 5672 5671 5670 5669 5668 5668 5667 5667 5667 5668 5668 5668 5668 5668 5668 5667 5667 5666 5665 5665 5664 5663
5670 5664 5654 5643 5643 5635 5634 5648 5673 5674 5677 5677 5679 5680 5681 5681 5680 5680 5679 5678 5677 5676 5674 5673 5671 5670 5669 5668 5667 5666 5665 5664 5664 5663 5664 5664 5664 5665 5665 5665 5665 5665 5664 5664 5663 5662 5662 5661 5661
5668 5663 5652 5643 5639 5634 5631 5644 5675 5674 5674 5674 5674 5676 5677 5677 5676 5676 5674 5673 5671 5669 5668 5667 5666 5665 5665 5664 5663 5662 5661 5660 5660 5660 5661 5661 5661 5662 5661 5661 5661 5661 5661 5661 5660 5659 5659 5659 5658